Weather History for Monticello, IA

Change the Weather History Date:

Wednesday, February 20, 2013

  Actual Average Record
Temperature  
Mean Temperature 14 °F -  
Max Temperature 26 °F 34 °F 51 °F (2003)
Min Temperature 3 °F 20 °F -11 °F (2008)
Degree Days  
Heating Degree Days 50    
Moisture  
Dew Point 5 °F    
Average Humidity 65    
Maximum Humidity 79    
Minimum Humidity 46    
Precipitation  
Precipitation 0.00 in - - ()
Sea Level Pressure  
Sea Level Pressure 30.36 in    
Wind  
Wind Speed 6 mph (NNW)    
Max Wind Speed 9 mph    
Max Gust Speed -    
Visibility 10 miles    
Events      
Averages and records for this station are not official NWS values.
T = Trace of Precipitation, MM = Missing Value Source: NWS Daily Summary

Daily Weather History Graph

Daily Weather History Graph

Search for Another Location

Airport:

Trip Planner

Search our weather history database for the weather conditions in past years. The results will help you decide how hot, cold, wet, or windy it might be!

Date:

Astronomy

Feb. 20, 2013 Rise Set
Actual Time 6:53 AM CST 5:43 PM CST
Civil Twilight 6:24 AM CST 6:12 PM CST
Nautical Twilight 5:52 AM CST 6:45 PM CST
Astronomical Twilight 5:19 AM CST 7:17 PM CST
Moon 1:02 PM CST (2/20) 3:17 AM CST (2/20)
Length of Visible Light 11h 47m
Length of Day
10h 50m
Waxing Gibbous, 76% of the Moon is Illuminated
Feb 20
Waxing Gibbous
Feb 25
Full
Mar 4
Last Quarter
Mar 11
New
Mar 19
First Quarter

Hourly Weather History & Observations

Time (CST) Temp. Windchill Dew Point Humidity Pressure Visibility Wind Dir Wind Speed Gust Speed Precip Events Conditions
12:15 AM 5.0 °F -5.6 °F -2.2 °F 72% 30.31 in 10.0 mi NW 5.8 mph - N/A   Clear
12:35 AM 5.0 °F -6.9 °F -2.2 °F 72% 30.32 in 10.0 mi NW 6.9 mph - N/A   Clear
12:55 AM 3.2 °F -9.1 °F -2.2 °F 78% 30.32 in 10.0 mi NW 6.9 mph - N/A   Clear
1:15 AM 5.0 °F -8.1 °F -2.2 °F 72% 30.33 in 10.0 mi NW 8.1 mph - N/A   Clear
1:35 AM 5.0 °F -8.1 °F -2.2 °F 72% 30.33 in 10.0 mi NW 8.1 mph - N/A   Clear
1:55 AM 5.0 °F -6.9 °F -2.2 °F 72% 30.33 in 10.0 mi NW 6.9 mph - N/A   Clear
2:15 AM 5.0 °F -6.9 °F -2.2 °F 72% 30.34 in 10.0 mi WNW 6.9 mph - N/A   Clear
2:35 AM 5.0 °F -6.9 °F -2.2 °F 72% 30.35 in 10.0 mi West 6.9 mph - N/A   Clear
3:15 AM 5.0 °F -6.9 °F -2.2 °F 72% 30.36 in 10.0 mi WNW 6.9 mph - N/A   Clear
3:35 AM 3.2 °F -10.3 °F -2.2 °F 78% 30.35 in 10.0 mi NW 8.1 mph - N/A   Clear
3:55 AM 3.2 °F -10.3 °F -2.2 °F 78% 30.35 in 10.0 mi NW 8.1 mph - N/A   Clear
4:15 AM 3.2 °F -10.3 °F -2.2 °F 78% 30.35 in 10.0 mi WNW 8.1 mph - N/A   Clear
4:35 AM 3.2 °F -9.1 °F -2.2 °F 78% 30.35 in 10.0 mi WNW 6.9 mph - N/A   Clear
4:55 AM 3.2 °F -10.3 °F -2.2 °F 78% 30.36 in 10.0 mi NW 8.1 mph - N/A   Clear
5:15 AM 3.2 °F -11.3 °F -2.2 °F 78% 30.35 in 10.0 mi NW 9.2 mph - N/A   Clear
5:35 AM 3.2 °F -10.3 °F -2.2 °F 78% 30.34 in 10.0 mi NW 8.1 mph - N/A   Clear
6:15 AM 3.2 °F -7.8 °F -2.2 °F 78% 30.36 in 10.0 mi NW 5.8 mph - N/A   Clear
6:55 AM 3.2 °F -6.2 °F -2.2 °F 78% 30.36 in 10.0 mi NNW 4.6 mph - N/A   Clear
7:35 AM 5.0 °F -4.1 °F -2.2 °F 72% 30.37 in 10.0 mi North 4.6 mph - N/A   Clear
7:55 AM 6.8 °F -6.9 °F -0.4 °F 72% 30.37 in 10.0 mi NNW 9.2 mph - N/A   Clear
8:15 AM 6.8 °F -5.9 °F -0.4 °F 72% 30.37 in 10.0 mi North 8.1 mph - N/A   Clear
8:35 AM 8.6 °F -1.3 °F -0.4 °F 67% 30.38 in 10.0 mi North 5.8 mph - N/A   Clear
8:55 AM 10.4 °F 0.8 °F 1.4 °F 67% 30.38 in 10.0 mi NNE 5.8 mph - N/A   Clear
9:15 AM 10.4 °F -1.5 °F 1.4 °F 67% 30.38 in 10.0 mi North 8.1 mph - N/A   Clear
9:35 AM 12.2 °F 2.9 °F 1.4 °F 62% 30.39 in 10.0 mi NNW 5.8 mph - N/A   Clear
9:55 AM 12.2 °F 4.3 °F 1.4 °F 62% 30.40 in 10.0 mi North 4.6 mph - N/A   Clear
10:15 AM 14.0 °F 8.2 °F 3.2 °F 62% 30.40 in 10.0 mi NW 3.5 mph - N/A   Clear
10:35 AM 15.8 °F 10.2 °F 3.2 °F 58% 30.40 in 10.0 mi North 3.5 mph - N/A   Clear
10:55 AM 15.8 °F 7.2 °F 3.2 °F 58% 30.39 in 10.0 mi NW 5.8 mph - N/A   Clear
11:15 AM 17.6 °F 8.2 °F 3.2 °F 53% 30.38 in 10.0 mi North 6.9 mph - N/A   Clear
11:35 AM 17.6 °F 7.3 °F 3.2 °F 53% 30.38 in 10.0 mi NW 8.1 mph - N/A   Clear
11:55 AM 19.4 °F - 5.0 °F 54% 30.41 in 10.0 mi Calm Calm - N/A   Clear
12:15 PM 21.2 °F 16.4 °F 5.0 °F 50% 30.41 in 10.0 mi West 3.5 mph - N/A   Clear
12:35 PM 21.2 °F 11.7 °F 6.8 °F 54% 30.41 in 10.0 mi WNW 8.1 mph - N/A   Clear
12:55 PM 21.2 °F 12.6 °F 6.8 °F 54% 30.41 in 10.0 mi WNW 6.9 mph - N/A   Clear
1:15 PM 24.8 °F 15.3 °F 8.6 °F 50% 30.39 in 10.0 mi West 9.2 mph - N/A   Clear
1:35 PM 24.8 °F 16.9 °F 8.6 °F 50% 30.38 in 10.0 mi NNW 6.9 mph - N/A   Clear
1:55 PM 24.8 °F 16.1 °F 6.8 °F 46% 30.36 in 10.0 mi NNW 8.1 mph - N/A   Clear
2:15 PM 24.8 °F 17.9 °F 8.6 °F 50% 30.35 in 10.0 mi NW 5.8 mph - N/A   Clear
2:35 PM 24.8 °F 16.9 °F 8.6 °F 50% 30.35 in 10.0 mi NNW 6.9 mph - N/A   Clear
2:55 PM 26.6 °F 17.5 °F 8.6 °F 47% 30.34 in 10.0 mi NNW 9.2 mph - N/A   Clear
3:15 PM 26.6 °F 19.1 °F 10.4 °F 51% 30.33 in 10.0 mi North 6.9 mph - N/A   Clear
3:35 PM 26.6 °F 19.1 °F 10.4 °F 51% 30.34 in 10.0 mi NNW 6.9 mph - N/A   Clear
3:55 PM 26.6 °F 19.1 °F 10.4 °F 51% 30.33 in 10.0 mi North 6.9 mph - N/A   Clear
4:15 PM 26.6 °F 21.2 °F 10.4 °F 51% 30.34 in 10.0 mi North 4.6 mph - N/A   Clear
4:35 PM 26.6 °F 20.0 °F 10.4 °F 51% 30.33 in 10.0 mi North 5.8 mph - N/A   Clear
4:55 PM 26.6 °F 20.0 °F 10.4 °F 51% 30.34 in 10.0 mi North 5.8 mph - N/A   Clear
5:15 PM 24.8 °F 19.1 °F 10.4 °F 54% 30.34 in 10.0 mi NNW 4.6 mph - N/A   Clear
5:35 PM 24.8 °F - 10.4 °F 54% 30.34 in 10.0 mi Calm Calm - N/A   Clear
5:55 PM 24.8 °F 19.1 °F 12.2 °F 59% 30.34 in 10.0 mi NE 4.6 mph - N/A   Clear
6:15 PM 23.0 °F 18.4 °F 12.2 °F 63% 30.34 in 10.0 mi NE 3.5 mph - N/A   Clear
6:35 PM 21.2 °F 13.6 °F 12.2 °F 68% 30.34 in 10.0 mi NNE 5.8 mph - N/A   Clear
6:55 PM 21.2 °F 11.7 °F 12.2 °F 68% 30.34 in 10.0 mi NNE 8.1 mph - N/A   Clear
7:15 PM 21.2 °F 14.9 °F 12.2 °F 68% 30.34 in 10.0 mi NE 4.6 mph - N/A   Clear
7:35 PM 21.2 °F 14.9 °F 12.2 °F 68% 30.34 in 10.0 mi NE 4.6 mph - N/A   Clear
7:55 PM 19.4 °F - 12.2 °F 74% 30.34 in 10.0 mi Calm Calm - N/A   Clear
8:15 PM 19.4 °F - 10.4 °F 68% 30.34 in 10.0 mi Calm Calm - N/A   Clear
8:35 PM 19.4 °F - 10.4 °F 68% 30.34 in 10.0 mi Calm Calm - N/A   Clear
8:55 PM 19.4 °F - 10.4 °F 68% 30.35 in 10.0 mi Calm Calm - N/A   Clear
9:15 PM 17.6 °F 12.3 °F 10.4 °F 73% 30.35 in 10.0 mi NNE 3.5 mph - N/A   Clear
9:35 PM 17.6 °F - 10.4 °F 73% 30.35 in 10.0 mi Calm Calm - N/A   Clear
9:55 PM 17.6 °F - 10.4 °F 73% 30.36 in 10.0 mi Calm Calm - N/A   Clear
10:15 PM 17.6 °F - 10.4 °F 73% 30.37 in 10.0 mi Calm Calm - N/A   Clear
10:35 PM 17.6 °F - 10.4 °F 73% 30.37 in 10.0 mi Calm Calm - N/A   Clear
10:55 PM 17.6 °F - 10.4 °F 73% 30.37 in 10.0 mi Calm Calm - N/A   Clear
11:15 PM 15.8 °F - 10.4 °F 79% 30.37 in 10.0 mi Calm Calm - N/A   Clear
11:35 PM 15.8 °F - 10.4 °F 79% 30.37 in 10.0 mi Calm Calm - N/A   Clear
11:55 PM 15.8 °F - 10.4 °F 79% 30.35 in 10.0 mi Calm Calm - N/A   Clear